OK,93,17,670,93,2014-10-01T01:40:00,0,28071997,189994
OK,93,17,670,93,2014-10-01T01:45:00,0,28072440,189994
OK,93,17,670,93,2014-10-01T01:50:00,0,28072889,189994
OK,93,17,670,93,2014-10-01T01:55:00,0,28073336,189994
OK,93,17,670,93,2014-10-01T02:05:00,0,28074102,189994
OK,93,17,670,93,2014-10-01T02:10:00,0,28074551,189994
OK,93,17,670,93,2014-10-01T02:15:00,0,28074991,189994
OK,93,17,670,93,2014-10-01T02:20:00,0,28075440,189994
OK,46,34,670,46,2014-10-01T02:25:00,0,28075889,189994
OK,46,34,670,46,2014-10-01T02:30:00,0,28076272,189994
OK,46,34,670,46,2014-10-01T02:35:00,0,28076721,189994
OK,45,35,670,45,2014-10-01T02:40:00,1,28077170,189994
OK,35,45,670,35,2014-10-01T02:45:00,2,28077619,189994
OK,25,64,670,25,2014-10-01T02:50:00,1,28078022,189994
OK,25,64,670,25,2014-10-01T02:55:00,0,28078471,189994
OK,25,64,670,25,2014-10-01T03:00:00,0,28078916,189994
OK,25,64,670,25,2014-10-01T03:05:00,0,28079364,189994
OK,25,64,670,25,2014-10-01T03:10:00,0,28079807,189994
OK,25,64,670,25,2014-10-01T03:15:00,0,28080256,189994
OK,64,25,670,64,2014-10-01T03:20:00,1,28080590,189994
OK,64,25,670,64,2014-10-01T03:25:00,0,28081039,189994
OK,64,25,670,64,2014-10-01T03:30:00,0,28081488,189994
OK,64,25,670,64,2014-10-01T03:35:00,0,28081935,189994
OK,64,25,670,64,2014-10-01T03:40:00,0,28082384,189994
OK,64,25,670,64,2014-10-01T03:45:00,0,28082817,189994
OK,64,25,670,64,2014-10-01T03:50:00,0,28083249,189994
OK,64,25,670,64,2014-10-01T03:55:00,0,28083698,189994
OK,70,22,670,70,2014-10-01T04:00:00,1,28084147,189994
OK,70,22,670,70,2014-10-01T04:05:00,1,28084588,189994
OK,70,22,670,70,2014-10-01T04:10:00,0,28085013,189994
OK,70,22,670,70,2014-10-01T04:15:00,0,28085462,189994
OK,79,20,670,79,2014-10-01T04:20:00,1,28085907,189994
OK,93,17,670,93,2014-10-01T04:25:00,2,28086356,189994
OK,108,14,670,108,2014-10-01T04:30:00,1,28086798,189994
OK,108,14,670,108,2014-10-01T04:35:00,0,28087247,189994
OK,137,11,670,137,2014-10-01T04:40:00,1,28087692,189994
OK,137,11,670,137,2014-10-01T04:45:00,0,28088141,189994
OK,111,14,670,111,2014-10-01T04:50:00,2,28088565,189994
OK,148,10,670,148,2014-10-01T04:55:00,2,28089014,189994
OK,132,12,670,132,2014-10-01T05:00:00,2,28089444,189994
OK,97,16,670,97,2014-10-01T05:05:00,6,28089893,189994
OK,87,18,670,87,2014-10-01T05:10:00,7,28090342,189994
OK,84,19,670,84,2014-10-01T05:15:00,5,28090686,189994
OK,62,25,670,62,2014-10-01T05:20:00,2,28091135,189994
OK,129,12,670,129,2014-10-01T05:25:00,1,28091584,189994
OK,129,12,670,129,2014-10-01T05:30:00,3,28092001,189994
OK,69,23,670,69,2014-10-01T05:35:00,2,28092450,189994
OK,181,8,670,181,2014-10-01T05:40:00,4,28092894,189994
OK,113,14,670,113,2014-10-01T05:45:00,6,28093335,189994
OK,142,11,670,142,2014-10-01T05:50:00,0,28093766,189994
OK,99,16,670,99,2014-10-01T05:55:00,4,28094215,189994
OK,178,9,670,178,2014-10-01T06:00:00,5,28094626,189994
OK,195,8,670,195,2014-10-01T06:05:00,2,28095071,189994
OK,128,12,670,128,2014-10-01T06:10:00,1,28095518,189994
OK,160,10,670,160,2014-10-01T06:15:00,2,28095967,189994
OK,192,8,670,192,2014-10-01T06:20:00,1,28096380,189994
OK,192,8,670,192,2014-10-01T06:25:00,0,28096829,189994
OK,131,12,670,131,2014-10-01T06:30:00,1,28097263,189994
OK,111,14,670,111,2014-10-01T06:35:00,2,28097712,189994
OK,131,12,670,131,2014-10-01T06:40:00,3,28098161,189994
OK,131,12,670,131,2014-10-01T06:45:00,2,28098598,189994
OK,131,12,670,131,2014-10-01T06:50:00,0,28099042,189994
OK,131,12,670,131,2014-10-01T06:55:00,0,28099490,189994
OK,131,12,670,131,2014-10-01T07:00:00,0,28099833,189994
OK,79,20,670,79,2014-10-01T07:10:00,1,28100589,189994
OK,57,28,670,57,2014-10-01T07:15:00,1,28101038,189994
OK,57,28,670,57,2014-10-01T07:20:00,1,28101409,189994
OK,156,10,670,156,2014-10-01T07:25:00,1,28101858,189994
OK,156,10,670,156,2014-10-01T07:30:00,1,28102294,189994
OK,109,14,670,109,2014-10-01T07:35:00,1,28102743,189994
OK,95,16,670,95,2014-10-01T07:40:00,2,28103170,189994
OK,81,19,670,81,2014-10-01T07:45:00,1,28103617,189994
OK,156,10,670,156,2014-10-01T07:50:00,2,28104062,189994
OK,156,10,670,156,2014-10-01T07:55:00,2,28104507,189994
OK,159,10,670,159,2014-10-01T08:00:00,0,28104948,189994
OK,72,22,670,72,2014-10-01T08:05:00,2,28105393,189994
OK,86,18,670,86,2014-10-01T08:10:00,3,28105833,189994
OK,148,10,670,148,2014-10-01T08:15:00,1,28106282,189994
OK,125,12,670,125,2014-10-01T08:20:00,1,28106719,189994
OK,136,11,670,136,2014-10-01T08:25:00,1,28107125,189994
OK,136,11,670,136,2014-10-01T08:30:00,1,28107557,189994
OK,154,10,670,154,2014-10-01T08:35:00,3,28108006,189994
OK,140,11,670,140,2014-10-01T08:40:00,5,28108445,189994
OK,101,15,670,101,2014-10-01T08:45:00,9,28108894,189994
OK,92,17,670,92,2014-10-01T08:50:00,9,28109322,189994
OK,97,16,670,97,2014-10-01T08:55:00,4,28109771,189994
OK,81,19,670,81,2014-10-01T09:00:00,2,28110114,189994
OK,53,30,670,53,2014-10-01T09:05:00,1,28110563,189994
OK,53,30,670,53,2014-10-01T09:10:00,0,28110986,189994
OK,53,30,670,53,2014-10-01T09:15:00,0,28111435,189994
OK,53,30,670,53,2014-10-01T09:20:00,0,28111864,189994
OK,108,14,670,108,2014-10-01T09:25:00,1,28112313,189994
OK,108,14,670,108,2014-10-01T09:30:00,0,28112654,189994
OK,100,16,670,100,2014-10-01T09:35:00,2,28113103,189994
OK,79,20,670,79,2014-10-01T09:40:00,5,28113527,189994
OK,86,18,670,86,2014-10-01T09:45:00,3,28113976,189994
OK,86,18,670,86,2014-10-01T09:50:00,1,28114408,189994
OK,156,10,670,156,2014-10-01T10:00:00,3,28115211,189994
OK,156,10,670,156,2014-10-01T10:05:00,4,28115660,189994
OK,116,13,670,116,2014-10-01T10:10:00,3,28116072,189994
OK,80,20,670,80,2014-10-01T10:15:00,2,28116521,189994
OK,52,30,670,52,2014-10-01T10:20:00,2,28116929,189994
OK,54,29,670,54,2014-10-01T10:25:00,3,28117378,189994
OK,106,15,670,106,2014-10-01T10:30:00,5,28117803,189994
OK,113,14,670,113,2014-10-01T10:35:00,4,28118252,189994
OK,141,11,670,141,2014-10-01T10:40:00,2,28118697,189994
OK,102,15,670,102,2014-10-01T10:45:00,2,28119144,189994
OK,108,14,670,108,2014-10-01T10:50:00,1,28119588,189994
OK,76,21,670,76,2014-10-01T10:55:00,1,28120036,189994
OK,116,13,670,116,2014-10-01T11:00:00,1,28120484,189994
OK,109,14,670,109,2014-10-01T11:05:00,2,28120933,189994
OK,102,15,670,102,2014-10-01T11:10:00,0,28121316,189994
OK,92,17,670,92,2014-10-01T11:15:00,1,28121765,189994
OK,70,22,670,70,2014-10-01T11:20:00,2,28122203,189994
OK,82,19,670,82,2014-10-01T11:25:00,2,28122652,189994
OK,100,16,670,100,2014-10-01T11:30:00,2,28123093,189994
OK,85,18,670,85,2014-10-01T11:35:00,1,28123542,189994
OK,81,19,670,81,2014-10-01T11:40:00,2,28123974,189994
OK,43,37,670,43,2014-10-01T11:45:00,0,28124423,189994
OK,122,13,670,122,2014-10-01T11:50:00,1,28124825,189994
OK,101,15,670,101,2014-10-01T11:55:00,2,28125274,189994
OK,125,12,670,125,2014-10-01T12:00:00,1,28125703,189994
OK,125,12,670,125,2014-10-01T12:05:00,3,28126152,189994
OK,109,14,670,109,2014-10-01T12:10:00,3,28126504,189994
OK,158,10,670,158,2014-10-01T12:15:00,4,28126953,189994
OK,161,9,670,161,2014-10-01T12:20:00,2,28127402,189994
OK,132,12,670,132,2014-10-01T12:25:00,1,28127851,189994
OK,127,12,670,127,2014-10-01T12:30:00,2,28128279,189994
OK,116,13,670,116,2014-10-01T12:35:00,2,28128728,189994
OK,111,14,670,111,2014-10-01T12:40:00,1,28129163,189994
OK,96,16,670,96,2014-10-01T12:45:00,1,28129612,189994
OK,157,10,670,157,2014-10-01T12:50:00,2,28130046,189994
OK,219,7,670,219,2014-10-01T12:55:00,1,28130495,189994
OK,194,8,670,194,2014-10-01T13:00:00,1,28130923,189994
OK,254,6,670,254,2014-10-01T13:05:00,5,28131372,189994
OK,151,10,670,151,2014-10-01T13:10:00,3,28131809,189994
OK,107,15,670,107,2014-10-01T13:15:00,1,28132258,189994
OK,155,10,670,155,2014-10-01T13:20:00,1,28132696,189994
OK,186,8,670,186,2014-10-01T13:25:00,1,28133143,189994
OK,62,25,670,62,2014-10-01T13:30:00,1,28133581,189994
OK,62,25,670,62,2014-10-01T13:35:00,1,28134030,189994
OK,269,5,670,269,2014-10-01T13:40:00,1,28134469,189994
OK,269,5,670,269,2014-10-01T13:45:00,1,28134918,189994
OK,269,5,670,269,2014-10-01T13:50:00,0,28135337,189994
OK,269,5,670,269,2014-10-01T13:55:00,0,28135786,189994
OK,207,7,670,207,2014-10-01T14:00:00,1,28136223,189994
OK,207,7,670,207,2014-10-01T14:05:00,1,28136672,189994
OK,152,10,670,152,2014-10-01T14:10:00,2,28137112,189994
OK,166,9,670,166,2014-10-01T14:15:00,4,28137561,189994
OK,166,9,670,166,2014-10-01T14:20:00,4,28137995,189994
OK,205,7,670,205,2014-10-01T14:25:00,5,28138444,189994
OK,171,9,670,171,2014-10-01T14:30:00,2,28138872,189994
OK,195,8,670,195,2014-10-01T14:35:00,1,28139321,189994
OK,195,8,670,195,2014-10-01T14:40:00,0,28139732,189994
OK,131,12,670,131,2014-10-01T14:45:00,2,28140181,189994
OK,194,8,670,194,2014-10-01T14:50:00,2,28140623,189994
OK,155,10,670,155,2014-10-01T14:55:00,3,28141072,189994
OK,81,19,670,81,2014-10-01T15:00:00,1,28141498,189994
OK,304,5,670,304,2014-10-01T15:05:00,1,28141947,189994
OK,236,6,670,236,2014-10-01T15:10:00,2,28142375,189994
OK,219,7,670,219,2014-10-01T15:15:00,1,28142824,189994
OK,219,7,670,219,2014-10-01T15:20:00,0,28143251,189994
OK,120,13,670,120,2014-10-01T15:25:00,1,28143700,189994
OK,136,11,670,136,2014-10-01T15:30:00,5,28144148,189994
OK,137,11,670,137,2014-10-01T15:35:00,4,28144597,189994
OK,157,10,670,157,2014-10-01T15:40:00,1,28145018,189994
OK,125,12,670,125,2014-10-01T15:45:00,3,28145432,189994
OK,84,19,670,84,2014-10-01T15:50:00,2,28145881,189994
OK,52,30,670,52,2014-10-01T15:55:00,1,28146330,189994
OK,198,8,670,198,2014-10-01T16:00:00,3,28146779,189994
OK,200,8,670,200,2014-10-01T16:05:00,2,28147187,189994
OK,200,8,670,200,2014-10-01T16:10:00,0,28147631,189994
OK,200,8,670,200,2014-10-01T16:15:00,0,28148080,189994
OK,200,8,670,200,2014-10-01T16:20:00,0,28148481,189994
OK,200,8,670,200,2014-10-01T16:25:00,0,28148930,189994
OK,200,8,670,200,2014-10-01T16:30:00,0,28149369,189994
OK,49,32,670,49,2014-10-01T16:35:00,1,28149818,189994
OK,55,29,670,55,2014-10-01T16:40:00,4,28150244,189994
OK,62,25,670,62,2014-10-01T16:45:00,3,28150693,189994
OK,42,38,670,42,2014-10-01T16:50:00,1,28151111,189994
OK,70,22,670,70,2014-10-01T16:55:00,2,28151560,189994
OK,85,18,670,85,2014-10-01T17:05:00,2,28152009,189994
OK,114,14,670,114,2014-10-01T17:10:00,0,28152458,189994
OK,89,18,670,89,2014-10-01T17:15:00,2,28152904,189994
OK,96,16,670,96,2014-10-01T17:20:00,5,28153351,189994
OK,116,13,670,116,2014-10-01T17:25:00,1,28153800,189994
OK,88,18,670,88,2014-10-01T17:30:00,2,28154210,189994
OK,88,18,670,88,2014-10-01T17:35:00,2,28154659,189994
OK,88,18,670,88,2014-10-01T17:40:00,0,28155101,189994
OK,114,14,670,114,2014-10-01T17:45:00,1,28155549,189994
OK,114,14,670,114,2014-10-01T17:50:00,1,28155967,189994
OK,114,14,670,114,2014-10-01T17:55:00,0,28156416,189994
OK,114,14,670,114,2014-10-01T18:00:00,0,28156864,189994
OK,99,16,670,99,2014-10-01T18:05:00,1,28157303,189994
OK,99,16,670,99,2014-10-01T18:10:00,1,28157733,189994
OK,109,14,670,109,2014-10-01T18:15:00,1,28158181,189994
OK,109,14,670,109,2014-10-01T18:20:00,0,28158625,189994
OK,109,14,670,109,2014-10-01T18:25:00,0,28159070,189994
OK,66,24,670,66,2014-10-01T18:35:00,2,28159852,189994
OK,33,48,670,33,2014-10-01T18:40:00,0,28160301,189994
OK,99,16,670,99,2014-10-01T18:45:00,0,28160750,189994
OK,99,16,670,99,2014-10-01T18:50:00,0,28161188,189994
OK,66,24,670,66,2014-10-01T18:55:00,1,28161637,189994
OK,66,24,670,66,2014-10-01T19:00:00,1,28162054,189994
OK,66,24,670,66,2014-10-01T19:05:00,0,28162503,189994
OK,46,34,670,46,2014-10-01T19:10:00,1,28162897,189994
OK,45,35,670,45,2014-10-01T19:15:00,2,28163336,189994
OK,45,35,670,45,2014-10-01T19:20:00,1,28163784,189994
OK,56,28,670,56,2014-10-01T19:25:00,1,28164233,189994
OK,50,32,670,50,2014-10-01T19:30:00,2,28164664,189994
OK,44,36,670,44,2014-10-01T19:35:00,1,28165113,189994
OK,108,14,670,108,2014-10-01T19:40:00,1,28165538,189994
OK,108,14,670,108,2014-10-01T19:45:00,1,28165986,189994
OK,108,14,670,108,2014-10-01T19:50:00,0,28166425,189994
OK,108,14,670,108,2014-10-01T19:55:00,0,28166789,189994
OK,108,14,670,108,2014-10-01T20:00:00,0,28167238,189994
OK,108,14,670,108,2014-10-01T20:05:00,0,28167667,189994
OK,108,14,670,108,2014-10-01T20:10:00,0,28168100,189994
OK,108,14,670,108,2014-10-01T20:15:00,0,28168549,189994
OK,108,14,670,108,2014-10-01T20:20:00,0,28168994,189994
OK,45,35,670,45,2014-10-01T20:25:00,1,28169443,189994
OK,45,35,670,45,2014-10-01T20:30:00,1,28169891,189994
OK,45,35,670,45,2014-10-01T20:35:00,0,28170317,189994
OK,45,35,670,45,2014-10-01T20:40:00,0,28170762,189994
OK,45,35,670,45,2014-10-01T20:45:00,0,28171210,189994
OK,46,34,670,46,2014-10-01T20:50:00,1,28171647,189994
OK,46,34,670,46,2014-10-01T20:55:00,0,28172093,189994
OK,46,34,670,46,2014-10-01T21:00:00,0,28172541,189994
OK,46,34,670,46,2014-10-01T21:05:00,0,28172987,189994
OK,46,34,670,46,2014-10-01T21:10:00,0,28173433,189994
OK,46,34,670,46,2014-10-01T21:15:00,0,28173882,189994
OK,46,34,670,46,2014-10-01T21:20:00,0,28174323,189994
OK,46,34,670,46,2014-10-01T21:25:00,0,28174772,189994
OK,46,34,670,46,2014-10-01T21:35:00,0,28175594,189994
OK,46,34,670,46,2014-10-01T21:40:00,0,28176043,189994
OK,46,34,670,46,2014-10-01T21:45:00,0,28176492,189994
OK,46,34,670,46,2014-10-01T21:50:00,0,28176941,189994
OK,46,34,670,46,2014-10-01T21:55:00,0,28177297,189994
OK,46,34,670,46,2014-10-01T22:00:00,0,28177737,189994
OK,46,34,670,46,2014-10-01T22:05:00,0,28178183,189994
OK,46,34,670,46,2014-10-01T22:10:00,0,28178632,189994
OK,46,34,670,46,2014-10-01T22:15:00,0,28179079,189994
OK,46,34,670,46,2014-10-01T22:20:00,0,28179513,189994
OK,46,34,670,46,2014-10-01T22:25:00,0,28179956,189994
OK,46,34,670,46,2014-10-01T22:30:00,0,28180403,189994
OK,46,34,670,46,2014-10-01T22:35:00,0,28180801,189994
OK,46,34,670,46,2014-10-01T22:40:00,0,28181250,189994
OK,46,34,670,46,2014-10-01T22:45:00,0,28181674,189994
OK,46,34,670,46,2014-10-01T22:50:00,0,28182122,189994
OK,79,20,670,79,2014-10-01T22:55:00,1,28182569,189994
OK,79,20,670,79,2014-10-01T23:00:00,0,28183018,189994
OK,79,20,670,79,2014-10-01T23:05:00,0,28183435,189994
OK,79,20,670,79,2014-10-01T23:10:00,0,28183868,189994
OK,79,20,670,79,2014-10-01T23:15:00,0,28184313,189994
OK,79,20,670,79,2014-10-01T23:20:00,0,28184762,189994
OK,79,20,670,79,2014-10-01T23:25:00,0,28185197,189994
OK,79,20,670,79,2014-10-01T23:30:00,0,28185645,189994
OK,79,20,670,79,2014-10-01T23:40:00,0,28186468,189994
OK,43,37,670,43,2014-10-01T23:45:00,1,28187309,189994
OK,43,37,670,43,2014-10-01T23:55:00,0,28187757,189994
OK,43,37,670,43,2014-10-02T00:00:00,0,28188206,189994
OK,43,37,670,43,2014-10-02T00:05:00,0,28188645,189994
OK,43,37,670,43,2014-10-02T00:10:00,0,28189083,189994
OK,43,37,670,43,2014-10-02T00:15:00,0,28189532,189994
OK,43,37,670,43,2014-10-02T00:20:00,0,28189954,189994
OK,43,37,670,43,2014-10-02T00:25:00,0,28190399,189994
OK,43,37,670,43,2014-10-02T00:30:00,0,28190756,189994
OK,34,47,670,34,2014-10-02T00:35:00,1,28191205,189994
OK,34,47,670,34,2014-10-02T00:45:00,0,28191960,189994
OK,34,47,670,34,2014-10-02T00:50:00,0,28192409,189994
OK,34,47,670,34,2014-10-02T00:55:00,0,28192842,189994
OK,34,47,670,34,2014-10-02T01:00:00,0,28193262,189994
OK,34,47,670,34,2014-10-02T01:05:00,0,28193653,189994
OK,79,20,670,79,2014-10-02T01:10:00,1,28194102,189994
OK,79,20,670,79,2014-10-02T01:15:00,0,28194551,189994
OK,79,20,670,79,2014-10-02T01:20:00,0,28194991,189994
OK,79,20,670,79,2014-10-02T01:25:00,0,28195236,189994
OK,79,20,670,79,2014-10-02T01:30:00,0,28195685,189994
OK,79,20,670,79,2014-10-02T01:35:00,0,28196134,189994
OK,79,20,670,79,2014-10-02T01:40:00,0,28196418,189994
OK,79,20,670,79,2014-10-02T01:45:00,0,28196867,189994
OK,79,20,670,79,2014-10-02T01:50:00,0,28197290,189994
OK,79,20,670,79,2014-10-02T01:55:00,0,28197739,189994
OK,79,20,670,79,2014-10-02T02:00:00,0,28198187,189994
OK,79,20,670,79,2014-10-02T02:05:00,0,28198635,189994
OK,79,20,670,79,2014-10-02T02:10:00,0,28199084,189994
OK,79,20,670,79,2014-10-02T02:15:00,0,28199456,189994
OK,79,20,670,79,2014-10-02T02:20:00,0,28199898,189994
OK,79,20,670,79,2014-10-02T02:25:00,0,28200340,189994
OK,79,20,670,79,2014-10-02T02:30:00,0,28200783,189994
OK,79,20,670,79,2014-10-02T02:35:00,0,28201232,189994
OK,79,20,670,79,2014-10-02T02:45:00,0,28201663,189994
OK,79,20,670,79,2014-10-02T02:50:00,0,28202112,189994
OK,79,20,670,79,2014-10-02T02:55:00,0,28202561,189994
OK,79,20,670,79,2014-10-02T03:00:00,0,28203003,189994
OK,79,20,670,79,2014-10-02T03:05:00,0,28203451,189994
OK,79,20,670,79,2014-10-02T03:15:00,0,28203886,189994
OK,79,20,670,79,2014-10-02T03:30:00,0,28204335,189994
OK,79,20,670,79,2014-10-02T03:35:00,0,28204784,189994
OK,79,20,670,79,2014-10-02T03:40:00,0,28205233,189994
OK,56,28,670,56,2014-10-02T03:45:00,0,28205661,189994
OK,56,28,670,56,2014-10-02T03:50:00,0,28206090,189994
OK,56,28,670,56,2014-10-02T03:55:00,0,28206491,189994
OK,56,28,670,56,2014-10-02T04:00:00,0,28206940,189994
OK,56,28,670,56,2014-10-02T04:05:00,0,28207389,189994
OK,56,28,670,56,2014-10-02T04:10:00,0,28207808,189994
OK,56,28,670,56,2014-10-02T04:15:00,0,28208257,189994
OK,56,28,670,56,2014-10-02T04:20:00,0,28208684,189994
OK,56,28,670,56,2014-10-02T04:25:00,0,28209133,189994
OK,56,28,670,56,2014-10-02T04:30:00,0,28209571,189994
OK,56,28,670,56,2014-10-02T04:35:00,0,28210020,189994
OK,65,24,670,65,2014-10-02T04:40:00,2,28210443,189994
OK,34,47,670,34,2014-10-02T04:45:00,0,28210892,189994
OK,34,47,670,34,2014-10-02T04:50:00,0,28211317,189994
OK,125,12,670,125,2014-10-02T04:55:00,1,28211761,189994
OK,125,12,670,125,2014-10-02T05:00:00,1,28212139,189994
OK,125,12,670,125,2014-10-02T05:05:00,0,28212588,189994
OK,125,12,670,125,2014-10-02T05:10:00,0,28213017,189994
OK,54,29,670,54,2014-10-02T05:15:00,1,28213466,189994
OK,54,29,670,54,2014-10-02T05:20:00,0,28213904,189994
OK,108,14,670,108,2014-10-02T05:25:00,0,28214353,189994
OK,108,14,670,108,2014-10-02T05:30:00,0,28214766,189994
OK,108,14,670,108,2014-10-02T05:35:00,0,28215215,189994
OK,120,13,670,120,2014-10-02T05:40:00,5,28215631,189994
OK,204,7,670,204,2014-10-02T05:45:00,1,28216080,189994
OK,204,7,670,204,2014-10-02T05:50:00,0,28216419,189994
OK,202,7,670,202,2014-10-02T05:55:00,3,28216859,189994
OK,202,7,670,202,2014-10-02T06:00:00,3,28217306,189994
OK,114,14,670,114,2014-10-02T06:05:00,1,28217755,189994
OK,114,14,670,114,2014-10-02T06:10:00,1,28218194,189994
OK,85,18,670,85,2014-10-02T06:15:00,2,28218643,189994
OK,187,8,670,187,2014-10-02T06:20:00,3,28219063,189994
OK,185,8,670,185,2014-10-02T06:25:00,4,28219512,189994
OK,124,12,670,124,2014-10-02T06:30:00,4,28219885,189994
OK,134,12,670,134,2014-10-02T06:35:00,3,28220334,189994
OK,134,12,670,134,2014-10-02T06:40:00,1,28220768,189994
OK,124,12,670,124,2014-10-02T06:45:00,1,28221217,189994
OK,57,28,670,57,2014-10-02T07:00:00,3,28221884,189994
OK,89,18,670,89,2014-10-02T07:05:00,2,28222029,189994
OK,111,14,670,111,2014-10-02T07:10:00,3,28222478,189994
OK,75,21,670,75,2014-10-02T07:15:00,2,28222927,189994
OK,111,14,670,111,2014-10-02T07:20:00,0,28223358,189994
OK,37,43,670,37,2014-10-02T07:25:00,0,28223793,189994
OK,37,43,670,37,2014-10-02T07:30:00,0,28224236,189994
OK,62,25,670,62,2014-10-02T07:35:00,3,28224596,189994
OK,46,34,670,46,2014-10-02T07:40:00,1,28225045,189994
OK,46,34,670,46,2014-10-02T07:45:00,0,28225457,189994
OK,93,17,670,93,2014-10-02T07:50:00,1,28225816,189994
OK,91,17,670,91,2014-10-02T07:55:00,3,28226265,189994
OK,93,17,670,93,2014-10-02T08:00:00,2,28226706,189994
OK,60,26,670,60,2014-10-02T08:05:00,0,28227155,189994
OK,60,26,670,60,2014-10-02T08:10:00,0,28227570,189994
OK,112,14,670,112,2014-10-02T08:15:00,2,28228019,189994
OK,104,15,670,104,2014-10-02T08:20:00,0,28228378,189994
OK,108,14,670,108,2014-10-02T08:25:00,3,28228827,189994
OK,108,14,670,108,2014-10-02T08:30:00,1,28229237,189994
OK,88,18,670,88,2014-10-02T08:35:00,2,28229686,189994
OK,110,14,670,110,2014-10-02T08:40:00,0,28230036,189994
OK,110,14,670,110,2014-10-02T08:45:00,0,28230485,189994
OK,81,19,670,81,2014-10-02T08:50:00,2,28230851,189994
OK,116,13,670,116,2014-10-02T08:55:00,1,28231298,189994
OK,116,13,670,116,2014-10-02T09:00:00,3,28231723,189994
OK,110,14,670,110,2014-10-02T09:15:00,1,28232514,189994
OK,110,14,670,110,2014-10-02T09:20:00,0,28232963,189994
OK,110,14,670,110,2014-10-02T09:25:00,0,28233412,189994
OK,110,14,670,110,2014-10-02T09:30:00,0,28233836,189994
OK,93,17,670,93,2014-10-02T09:40:00,2,28234618,189994
OK,124,12,670,124,2014-10-02T09:45:00,2,28235067,189994
OK,86,18,670,86,2014-10-02T09:50:00,0,28235494,189994
OK,143,11,670,143,2014-10-02T09:55:00,2,28235943,189994
OK,173,9,670,173,2014-10-02T10:00:00,0,28236386,189994
OK,173,9,670,173,2014-10-02T10:05:00,0,28236833,189994
OK,96,16,670,96,2014-10-02T10:10:00,1,28237235,189994
OK,96,16,670,96,2014-10-02T10:15:00,0,28237683,189994
OK,96,16,670,96,2014-10-02T10:20:00,0,28238132,189994
OK,96,16,670,96,2014-10-02T10:25:00,0,28238579,189994
OK,96,16,670,96,2014-10-02T10:30:00,0,28239020,189994
OK,136,11,670,136,2014-10-02T10:35:00,2,28239469,189994
OK,169,9,670,169,2014-10-02T10:40:00,2,28239899,189994
OK,49,32,670,49,2014-10-02T10:45:00,3,28240348,189994
OK,47,34,670,47,2014-10-02T10:50:00,2,28240792,189994
OK,76,21,670,76,2014-10-02T10:55:00,2,28241241,189994
OK,105,15,670,105,2014-10-02T11:00:00,1,28241673,189994
OK,105,15,670,105,2014-10-02T11:05:00,0,28242121,189994
OK,99,16,670,99,2014-10-02T11:10:00,4,28242517,189994
OK,99,16,670,99,2014-10-02T11:15:00,4,28242966,189994
OK,104,15,670,104,2014-10-02T11:20:00,1,28243415,189994
OK,104,15,670,104,2014-10-02T11:25:00,1,28243740,189994
OK,104,15,670,104,2014-10-02T11:30:00,0,28244178,189994
OK,47,34,670,47,2014-10-02T11:35:00,1,28244607,189994
OK,47,34,670,47,2014-10-02T11:40:00,1,28245056,189994
OK,47,34,670,47,2014-10-02T11:45:00,0,28245505,189994
OK,97,16,670,97,2014-10-02T11:50:00,2,28245911,189994
OK,74,21,670,74,2014-10-02T11:55:00,3,28246360,189994
OK,92,17,670,92,2014-10-02T12:00:00,5,28246797,189994
OK,96,16,670,96,2014-10-02T12:05:00,3,28247245,189994
OK,114,14,670,114,2014-10-02T12:10:00,0,28247692,189994
OK,114,14,670,114,2014-10-02T12:15:00,0,28248122,189994
OK,114,14,670,114,2014-10-02T12:20:00,0,28248571,189994
OK,201,8,670,201,2014-10-02T12:25:00,2,28249018,189994
OK,212,7,670,212,2014-10-02T12:30:00,0,28249446,189994
OK,60,26,670,60,2014-10-02T12:35:00,1,28249890,189994
OK,60,26,670,60,2014-10-02T12:40:00,0,28250276,189994
OK,117,13,670,117,2014-10-02T12:45:00,3,28250707,189994
OK,181,8,670,181,2014-10-02T13:20:00,1,28251567,189994
OK,181,8,670,181,2014-10-02T13:30:00,0,28252032,189994
OK,181,8,670,181,2014-10-02T13:35:00,0,28252169,189994
OK,181,8,670,181,2014-10-02T13:40:00,0,28252616,189994
OK,285,5,670,285,2014-10-02T13:45:00,6,28253058,189994
OK,219,7,670,219,2014-10-02T13:50:00,2,28253475,189994
OK,156,10,670,156,2014-10-02T13:55:00,3,28253924,189994
OK,219,7,670,219,2014-10-02T14:10:00,6,28254655,189994
OK,356,4,670,356,2014-10-02T14:15:00,3,28254778,189994
OK,198,8,670,198,2014-10-02T14:20:00,2,28255227,189994
OK,293,5,670,293,2014-10-02T14:25:00,0,28255676,189994
OK,244,6,670,244,2014-10-02T14:30:00,4,28256104,189994
OK,244,6,670,244,2014-10-02T14:35:00,4,28256553,189994
OK,317,5,670,317,2014-10-02T14:40:00,1,28256981,189994
OK,238,6,670,238,2014-10-02T14:45:00,2,28257430,189994
OK,301,5,670,301,2014-10-02T14:50:00,0,28257871,189994
OK,301,5,670,301,2014-10-02T14:55:00,0,28258319,189994
OK,301,5,670,301,2014-10-02T15:00:00,0,28258752,189994
OK,68,23,670,68,2014-10-02T15:05:00,1,28259198,189994
OK,102,15,670,102,2014-10-02T15:10:00,2,28259646,189994
OK,136,11,670,136,2014-10-02T15:15:00,1,28260094,189994
OK,136,11,670,136,2014-10-02T15:20:00,0,28260527,189994
OK,250,6,670,250,2014-10-02T15:25:00,1,28261411,189994
OK,183,8,670,183,2014-10-02T15:35:00,3,28261781,189994
OK,183,8,670,183,2014-10-02T15:40:00,1,28262228,189994
OK,183,8,670,183,2014-10-02T15:45:00,0,28262675,189994